Regional Weather Roundup
Issued by NWS

Home | Current Version | Previous Version | Text Only | Print | Product List | Glossary Off
Versions: 1 2 3 4 5 6 7 8 9 10 11 12 13 14 15 16 17 18 19 20 21 22 23 24 25 26 27 28 29 30 31 32 33 34 35 36 37 38 39 40 41 42 43 44 45 46 47 48 49 50

000
ASUS45 KABQ 181501
RWRNM
WEATHER ROUNDUP FOR NEW MEXICO
NATIONAL WEATHER SERVICE ALBUQUERQUE NM
900 AM MDT THU SEP 18 2014

NOTE: "FAIR" MEANS FEW OR NO CLOUDS BELOW 12,000 FEET AGL WITH NO
       SIGNIFICANT WEATHER OR OBSTRUCTIONS TO VISION.

      THIS PRODUCT IS RELEASED AS TWO VERSIONS.  ONE VERSION NEAR
      THE TOP OF THE HOUR CONTAINING PRELIMINARY DATA FROM ALBUQUERQUE
      AND OTHER STATIONS.  A FINAL VERSION WITH ADDITIONAL DATA IS
      ISSUED ABOUT 10 MINUTES AFTER THE HOUR.

NMZ501-503-504-510>518-181600-
NORTHWEST PLATEAU/NORTHCENTRAL MOUNTAINS

CITY           SKY/WX    TMP DP  RH WIND       PRES   REMARKS
FARMINGTON     SUNNY     60  48  64 E10       30.10S
LOS ALAMOS     SUNNY     57  46  66 N5        30.21S
SANTA FE       SUNNY     60  42  51 N17       30.15R
TAOS           SUNNY     54  39  58 CALM      30.22R
ANGEL FIRE     FAIR      43  38  82 CALM      30.31S

$$
NMZ402-403-502-505>509-181600-
WESTCENTRAL MOUNTAINS/SOUTHWEST MOUNTAINS

CITY           SKY/WX    TMP DP  RH WIND       PRES   REMARKS
GALLUP         SUNNY     60  46  59 NE6       30.15R
SILVER CITY    LGT RAIN  61  57  88 E8        30.08R

$$
NMZ407-409-411-412-181600-
SOUTHERN DESERTS

CITY           SKY/WX    TMP DP  RH WIND       PRES   REMARKS
LORDSBURG      LGT RAIN  61  61 100 MISG      29.98S
DEMING         RAIN      63  63 100 E13       30.00S FOG
LAS CRUCES     CLOUDY    64  63  96 CALM      30.03R
HOLLOMAN AFB   PTSUNNY   66  64  92 SW2       30.01S
ALAMOGORDO     CLOUDY    64  64 100 S6        30.03S
T OR C         CLOUDY    65  62  90 N5        30.05R

$$
NMZ519>523-181600-
CENTRAL VALLEYS/CENTRAL HIGHLANDS

CITY           SKY/WX    TMP DP  RH WIND       PRES   REMARKS
ALBUQUERQUE    MOSUNNY   62  52  69 N5        30.10S
DOUBLE EAGLE   MOSUNNY   61  50  67 VRB7      30.13R
CLINES CORNERS SUNNY     61  50  67 CALM      30.17R
BELEN          FAIR      61  56  85 N6        30.08S
SOCORRO        FAIR      65  62  90 CALM      30.06S

$$
NMZ524>526-539-540-181600-
SOUTHCENTRAL MOUNTAINS

CITY           SKY/WX    TMP DP  RH WIND       PRES   REMARKS
RUIDOSO        NOT AVBL

$$
NMZ527>531-181600-
NORTHEAST HIGHLANDS/NORTHEAST PLAINS

CITY           SKY/WX    TMP DP  RH WIND       PRES   REMARKS
LAS VEGAS      SUNNY     60  43  53 N7        30.18R
RATON          SUNNY     58  47  66 NE5       30.15R
CLAYTON        SUNNY     69  55  60 CALM      30.07R

$$
NMZ532>537-181600-
EASTCENTRAL PLAINS

CITY           SKY/WX    TMP DP  RH WIND       PRES   REMARKS
TUCUMCARI      PTSUNNY   68  62  81 CALM      30.03R
CANNON AFB     NOT AVBL
CLOVIS AIRPORT   N/A     64  63  94 SE7       30.07R

$$
NMZ028-029-538-181600-
SOUTHEAST PLAINS

CITY           SKY/WX    TMP DP  RH WIND       PRES   REMARKS
ROSWELL        CLOUDY    67  65  93 S9        30.00S
CARLSBAD       CLOUDY    67  67 100 SW6       29.99R
HOBBS          MOSUNNY   64  64 100 CALM      29.99F


$$



USA.gov is the U.S. government's official web portal to all federal, state and local government web resources and services.